Location: Eaton
(41.3139°N, 82.0207°W)
Time: 12:27:36
(UTC+00:00)

Cosmos 2142 Rocket - Pass Details

Date: 17 June 2021
Orbit: 952 x 1005 km, 83.0° (Epoch: 26 July)

Event Time Altitude Azimuth Distance (km) Brightness Sun altitude
Rises 06:27:04 0° 350° (N) 3,638 8.6 -23.9°
Reaches altitude 10° 06:29:34 10° 349° (N) 2,688 7.7 -23.8°
Maximum altitude 06:35:42 76° 266° (W) 988 4.4 -23.5°
Enters shadow 06:37:22 50° 194° (SSW) 1,201 4.5 -23.4°
